Temperature
23 24 25 25 25 25 24 22 21 21 21 21 20 20 21 21 21 21 21 21 21 20 20 20 20 19 19 19 19 19 19 18 18 18 18 17 17 17 17 17 17 17 17 17
22 24 24 24 25 25 24 23 22 21 21 21 21 21 21 21 20 20 20 20 20 20 20 20 20 19 19 19 19 19 18 18 18 18 17 17 17 17 17 17 17 17 17 17
20 22 23 22 23 23 23 22 22 20 20 20 19 20 20 20 20 20 20 20 20 20 20 20 19 19 19 19 19 18 18 18 18 17 17 17 17 17 17 17 17 17 17 16
19 21 22 21 23 23 23 22 21 20 20 20 20 20 20 20 20 19 19 19 20 20 20 19 19 19 19 19 18 18 18 18 17 17 17 17 17 17 16 16 16 16 16 16
17 19 20 22 23 23 22 20 20 19 19 20 20 19 19 19 19 19 19 19 19 19 19 19 19 19 18 18 18 18 17 17 17 17 17 17 16 16 16 16 16 16 16 16
18 19 20 20 22 23 21 19 19 19 19 19 19 17 17 19 19 19 19 19 19 19 19 18 18 18 18 18 18 17 17 17 17 17 16 16 16 16 16 16 16 16 16 16
17 18 19 20 21 22 20 18 19 19 19 19 18 18 18 18 18 18 18 18 19 18 18 18 18 18 18 17 17 17 17 17 16 16 16 16 16 16 15 15 15 15 15 15
16 17 18 19 20 19 18 19 19 19 19 19 18 18 18 18 18 18 18 18 18 18 17 17 17 17 17 17 17 17 16 16 16 16 16 15 15 15 15 15 15 15 15 15
16 16 17 19 19 20 20 19 19 19 18 19 18 17 17 17 17 17 17 17 17 17 17 16 16 16 16 16 16 16 16 16 16 15 15 15 15 15 15 15 15 15 14 14
15 16 18 19 19 19 19 19 19 19 19 18 18 17 17 17 17 17 17 16 16 16 16 16 16 16 15 15 15 15 15 15 15 15 15 15 15 14 14 14 14 14 14 14
15 16 17 18 18 18 18 19 19 19 18 18 18 17 17 16 16 16 16 16 16 16 16 15 15 15 15 15 15 15 15 15 14 14 14 14 14 14 14 14 14 14 14 14
15 16 16 17 18 18 18 18 18 18 17 17 17 16 16 16 16 16 16 15 15 15 15 15 15 15 15 15 14 14 14 14 14 14 14 14 14 14 13 13 13 13 13 13
18 18 18 18 18 18 18 17 17 17 17 17 16 16 16 15 15 15 15 15 15 15 15 15 15 15 14 14 14 14 14 14 14 14 14 13 13 13 13 13 13 13 13 13
18 18 17 17 17 17 17 17 17 17 16 16 16 16 16 15 15 15 15 14 14 14 14 14 14 14 14 14 14 14 14 14 14 14 13 13 13 13 13 13 13 13 13 13
17 17 17 16 16 16 16 16 16 16 16 15 15 15 15 15 15 14 14 14 14 14 14 14 14 14 14 14 14 14 13 13 13 13 13 13 13 13 13 13 13 13 13 13
16 16 16 16 16 16 15 15 15 15 15 15 15 15 14 14 14 14 14 14 13 13 13 13 13 13 13 13 13 13 13 13 13 13 13 13 13 13 12 12 12 12 12 12
16 15 15 15 15 15 15 15 15 15 15 15 14 14 14 14 14 13 13 13 13 13 13 13 13 13 13 13 13 13 13 13 13 13 13 13 12 12 12 12 12 12 12 12
16 15 15 15 15 15 14 15 15 15 15 14 14 14 14 14 13 13 13 13 13 13 13 13 13 13 13 13 13 13 13 13 12 12 12 12 12 12 12 12 12 12 11 11
15 15 15 15 15 15 14 14 14 14 14 14 14 14 14 13 13 13 13 13 12 12 12 12 12 12 12 12 12 12 12 12 12 12 12 12 12 12 12 11 11 11 11 11
15 15 15 14 14 14 14 14 14 14 14 14 14 13 13 13 13 13 12 12 12 12 12 12 12 12 12 12 12 12 12 12 12 12 12 12 12 12 11 11 11 11 11 11
14 14 14 14 14 14 14 14 14 14 13 13 13 13 13 13 12 12 12 12 12 12 12 12 11 11 11 11 11 11 11 11 11 11 11 11 11 11 11 11 11 11 11 10
14 14 14 14 14 13 13 13 13 13 13 13 13 13 13 12 12 12 12 12 12 12 11 11 11 11 11 11 11 11 11 11 11 11 11 11 11 11 11 11 11 10 10 10
13 13 13 13 13 13 13 13 13 13 13 13 13 13 12 12 12 12 12 12 12 11 11 11 11 11 11 11 11 11 11 11 11 11 11 11 10 10 10 10 10 10 10 10
13 13 13 13 13 13 13 13 13 12 13 13 12 12 12 12 12 12 12 12 11 11 11 11 11 11 11 11 11 11 10 10 10 10 10 10 10 10 10 10 10 10 10 10
13 13 13 13 13 13 12 12 12 12 12 12 12 12 12 12 12 12 12 11 11 11 11 11 11 11 11 10 10 10 10 10 10 10 10 10 10 10 10 10 9 9 9 9
12 12 13 13 13 12 12 12 12 12 12 12 12 12 12 12 12 12 11 11 11 11 11 11 11 11 11 11 10 10 10 10 10 10 10 10 10 10 9 9 9 9 9 9
12 12 12 12 12 12 12 12 12 12 12 12 12 12 12 12 11 11 11 11 11 11 11 11 10 11 11 10 10 10 10 10 10 10 10 9 9 9 9 9 9 9 9 8
Wind_Speed
4 5 1 2 3 2 2 6 6 5 4 6 5 6 6 6 6 6 5 4 5 5 5 5 5 5 6 6 5 6 6 5 5 5 4 3 3 3 4 4 5 4 4 4
4 3 2 2 2 2 2 1 4 3 1 3 2 3 3 3 4 5 4 4 4 4 4 5 5 5 5 5 5 5 5 5 4 3 3 3 4 3 3 3 4 3 3 4
3 5 3 3 2 1 1 1 3 3 4 2 2 3 4 5 5 5 4 4 3 4 4 5 5 5 6 5 4 4 4 4 3 3 3 3 3 3 3 4 3 3 3 3
1 3 2 6 1 4 4 3 2 2 2 4 5 4 3 3 4 4 3 3 2 3 3 3 3 4 4 4 4 3 3 2 2 3 3 3 3 3 4 3 3 3 3 3
3 2 3 4 4 0 2 2 3 2 1 2 4 5 3 2 2 3 3 3 3 3 3 2 2 3 4 3 4 3 3 3 3 3 3 3 4 4 3 3 2 3 3 3
3 3 4 5 5 1 6 1 4 2 2 3 5 3 2 1 2 3 2 1 1 2 3 3 1 2 4 3 3 3 3 3 3 2 3 4 4 4 3 2 3 2 2 3
3 4 5 5 6 5 3 4 3 1 2 3 2 3 2 1 3 3 3 2 3 3 2 1 2 3 3 2 3 3 2 2 2 2 2 2 2 2 2 2 1 1 2 2
3 3 5 5 4 3 5 3 1 2 2 4 4 4 4 4 4 4 4 4 4 4 4 3 2 3 2 1 2 1 1 1 1 1 2 1 1 1 1 2 2 2 2 2
5 5 4 1 2 3 4 3 2 2 3 5 5 4 3 3 4 3 4 4 3 4 4 4 3 3 2 1 1 2 2 2 1 1 1 2 2 2 1 1 2 2 2 2
1 0 1 2 3 2 3 3 3 4 5 6 4 3 3 2 2 2 3 3 3 4 4 3 2 2 1 0 0 1 2 2 2 1 1 1 1 2 2 2 2 1 2 2
1 1 2 3 1 2 3 3 4 4 4 5 5 3 2 2 1 1 1 2 2 2 2 1 1 2 2 2 2 1 1 1 1 2 2 1 1 1 2 3 4 4 3 3
4 5 3 4 3 1 3 2 3 4 3 3 4 3 2 1 0 0 1 1 1 1 1 1 1 2 2 2 1 1 1 0 1 2 2 2 1 1 2 1 2 3 3 3
4 3 3 3 0 2 3 2 2 4 5 3 3 3 2 1 0 1 1 1 1 1 1 0 1 1 1 1 1 1 0 1 1 1 2 2 2 2 1 3 3 2 0 1
2 2 1 0 0 1 2 1 2 4 4 4 3 3 2 2 1 1 1 1 0 1 1 1 1 2 2 1 1 1 0 0 0 1 2 2 2 2 2 2 0 2 2 1
1 3 3 2 2 2 3 3 4 3 3 3 3 3 3 2 1 2 1 0 1 2 1 1 1 2 2 1 1 1 0 0 0 1 1 1 1 1 1 1 1 0 1 2
1 3 4 3 2 1 1 2 3 2 3 3 3 2 2 2 1 1 1 1 1 0 1 0 1 2 1 0 1 1 1 1 1 1 0 0 1 1 1 1 1 1 1 1
2 1 1 2 2 1 1 1 3 3 3 3 3 2 2 2 1 1 0 1 1 1 1 1 2 2 1 0 0 0 1 2 1 1 1 1 1 1 2 1 1 1 2 2
4 4 5 5 4 3 1 1 1 2 3 3 3 3 2 2 2 2 2 1 1 2 1 1 2 1 1 1 1 1 1 1 1 1 1 1 1 1 1 1 1 1 1 1
1 2 2 2 3 3 2 2 2 2 2 3 3 3 3 3 3 2 2 2 1 1 3 3 2 1 1 2 1 1 1 1 1 1 1 2 1 1 1 1 1 1 1 1
1 1 1 1 2 3 3 2 2 2 2 3 3 2 2 2 3 3 2 1 2 3 3 2 1 1 2 2 2 1 1 1 2 2 2 2 2 2 2 2 2 1 2 2
2 2 2 1 1 1 3 3 3 2 2 3 4 4 4 3 3 3 3 2 3 3 2 1 1 2 2 2 2 1 1 1 1 1 1 2 2 2 2 2 2 2 2 1
2 2 1 1 1 1 2 2 3 2 2 2 2 3 3 3 3 2 3 3 3 3 1 1 1 2 2 2 1 1 1 1 1 1 1 1 1 1 1 2 2 2 1 1
1 1 0 1 1 2 1 1 2 3 3 3 4 4 4 4 3 3 3 3 2 3 2 2 2 2 2 1 1 1 1 1 1 1 1 1 1 2 2 2 1 1 1 1
1 1 2 2 1 1 1 2 1 2 2 3 4 4 4 3 2 2 3 3 3 3 2 2 3 2 2 1 0 0 1 1 1 1 1 1 2 2 2 2 1 1 1 1
2 2 1 0 0 1 2 2 1 1 1 1 2 2 3 3 3 2 2 3 3 3 2 2 3 2 1 1 1 1 1 1 1 2 2 2 2 2 2 1 2 2 2 1
1 2 2 2 2 2 2 1 1 1 1 1 0 1 1 1 1 1 1 1 2 3 2 2 2 2 1 1 1 1 1 1 1 1 2 2 2 2 1 1 1 1 1 1
2 1 1 1 1 1 2 2 2 2 2 3 2 2 2 2 1 1 1 1 1 1 1 1 1 2 2 1 1 1 1 1 2 2 2 2 2 2 2 2 2 2 2 2
Wind_Direction
230 245 262 294 300 352 127 173 176 207 202 228 210 190 180 173 162 152 150 148 157 172 185 186 181 184 184 183 181 180 178 188 204 213 216 222 232 240 242 240 241 237 233 238
326 320 6 4 360 31 18 127 147 128 276 257 177 126 142 160 151 154 168 171 181 191 188 187 182 187 187 187 185 175 177 193 203 204 211 221 231 238 240 245 246 239 238 240
281 308 28 325 281 111 56 45 139 165 231 191 130 155 172 163 158 164 176 180 181 194 193 191 192 186 180 185 174 169 180 192 192 197 211 227 232 238 241 243 238 243 247 239
193 33 233 240 230 116 101 54 60 132 181 170 170 164 139 120 145 161 166 172 187 189 188 188 186 171 165 157 150 166 180 202 210 208 217 225 230 240 243 236 233 235 245 242
121 179 264 302 321 5 120 1 8 98 97 99 111 81 42 39 98 141 159 167 185 173 156 148 158 169 156 158 161 164 188 215 222 213 218 217 224 236 236 233 235 236 241 239
132 166 223 251 293 298 104 14 328 86 125 128 101 94 268 331 58 71 88 115 140 131 126 127 171 161 150 171 175 184 209 222 222 208 218 219 223 227 225 218 228 232 250 250
171 203 247 274 314 33 101 234 289 47 131 120 123 175 196 91 66 65 75 88 89 81 88 122 157 144 151 176 210 216 205 199 198 183 218 221 220 223 224 219 215 222 245 269
158 186 248 302 29 109 196 201 129 78 99 97 87 78 80 78 75 70 69 72 77 72 58 50 67 100 119 200 230 173 141 173 215 188 226 242 202 213 216 198 195 220 235 276
176 205 242 338 133 167 147 126 106 110 103 97 92 84 78 72 78 71 67 56 68 77 63 51 51 72 82 295 236 153 156 189 213 198 229 224 199 198 212 199 193 214 218 248
89 275 340 50 70 63 97 131 130 120 117 108 100 92 69 65 63 60 54 56 58 73 64 41 34 46 55 14 332 155 174 183 166 169 207 197 202 199 187 200 199 204 228 241
126 243 37 8 19 69 62 71 97 103 110 125 120 108 99 89 63 44 34 28 47 78 74 37 28 25 16 34 68 89 149 166 158 180 195 188 190 218 213 221 204 194 214 210
215 215 185 244 256 119 99 97 129 119 97 103 121 121 98 87 356 76 62 53 7 18 33 2 12 15 13 21 58 89 95 154 182 182 188 191 188 321 341 266 234 202 193 179
204 215 195 206 360 83 109 116 128 132 141 137 117 120 117 117 94 54 34 30 338 341 12 15 34 17 356 3 35 71 153 193 179 174 180 194 203 204 276 346 15 25 122 167
198 121 82 89 268 55 76 69 104 105 122 130 127 124 121 110 100 81 301 272 231 60 30 9 18 345 330 359 37 28 345 70 150 194 198 202 210 216 201 188 338 351 356 22
142 128 149 134 69 46 44 72 93 94 104 103 112 125 131 134 158 204 227 296 56 44 17 14 6 310 307 13 62 44 19 237 201 205 205 207 196 178 157 163 165 206 23 21
79 89 102 102 101 74 68 92 127 134 125 129 131 148 158 157 171 209 218 132 117 215 265 302 294 280 265 123 60 353 314 267 207 205 195 170 176 164 163 166 175 187 184 172
122 157 156 181 208 230 202 191 174 169 149 146 156 156 142 123 100 93 251 191 177 239 222 206 275 290 314 43 159 245 277 288 286 237 198 204 218 214 199 175 171 193 210 198
187 195 192 195 196 205 221 218 160 150 164 169 159 148 151 163 183 199 191 146 62 18 337 283 283 305 323 306 267 239 233 247 247 222 204 195 211 215 184 169 170 174 196 178
175 171 176 177 172 173 179 188 194 182 172 165 160 180 196 200 193 184 156 136 148 270 282 276 275 294 300 299 297 253 245 253 255 255 240 229 215 212 191 185 177 180 179 167
178 170 139 123 152 163 176 195 202 200 186 171 167 176 190 204 193 176 155 186 231 239 249 261 266 285 283 295 312 287 260 249 243 244 235 228 221 218 209 196 180 181 172 168
136 127 133 145 146 166 177 188 194 193 193 168 171 186 190 191 176 170 167 224 270 263 252 248 260 278 273 279 295 294 281 256 243 229 210 214 217 215 210 195 184 184 179 177
123 115 136 152 156 231 228 199 185 179 175 171 166 158 156 170 177 182 202 216 238 247 235 254 262 275 273 265 266 266 265 256 246 212 168 163 166 172 171 159 161 170 174 178
111 128 212 207 204 230 232 212 192 180 180 183 177 173 178 192 192 186 229 249 233 225 223 245 252 266 274 279 298 272 237 220 197 178 171 162 160 162 158 153 157 168 177 189
204 224 239 240 185 154 212 233 202 185 187 196 196 186 177 184 224 230 222 230 214 206 219 234 246 266 253 260 300 292 241 212 185 166 153 148 143 140 148 156 170 203 208 207
251 260 254 215 196 218 217 207 179 180 174 188 193 187 184 184 193 224 227 214 206 198 213 230 230 231 226 241 232 239 232 217 181 167 170 165 163 164 170 174 182 188 194 203
281 266 233 219 213 198 192 173 184 213 182 151 167 193 183 179 172 168 194 215 196 190 200 220 226 219 221 229 239 232 219 218 189 176 169 165 169 170 171 170 165 171 177 185
316 302 264 310 305 201 167 165 180 200 185 169 188 204 174 156 148 156 168 224 204 191 205 215 206 210 224 226 218 205 205 201 180 167 165 164 158 163 174 175 177 174 172 179
Height
1495 1490 1488 1489 1488 1487 1493 1500 1510 1508 1506 1500 1496 1494 1494 1493 1493 1494 1495 1496 1497 1498 1499 1501 1501 1502 1503 1503 1504 1505 1505 1506 1506 1507 1507 1507 1507 1506 1507 1507 1507 1507 1508 1508
1495 1488 1487 1490 1487 1487 1490 1492 1497 1500 1502 1493 1492 1493 1493 1493 1492 1493 1493 1494 1495 1496 1497 1498 1498 1499 1499 1500 1501 1502 1502 1502 1503 1503 1503 1503 1503 1503 1503 1503 1503 1503 1503 1504
1506 1494 1492 1502 1492 1490 1493 1492 1494 1501 1499 1492 1493 1492 1491 1491 1492 1491 1492 1493 1494 1494 1494 1495 1496 1496 1495 1496 1498 1499 1499 1500 1500 1500 1500 1499 1499 1499 1499 1499 1499 1499 1500 1500
1508 1504 1514 1502 1485 1484 1488 1491 1490 1490 1490 1489 1489 1490 1490 1491 1492 1492 1492 1493 1493 1493 1493 1494 1493 1493 1494 1494 1495 1496 1496 1497 1497 1497 1497 1496 1496 1496 1496 1496 1496 1496 1496 1497
1513 1514 1508 1495 1486 1484 1489 1496 1490 1490 1489 1488 1488 1489 1491 1491 1491 1491 1491 1491 1492 1492 1492 1492 1492 1492 1492 1493 1492 1493 1492 1493 1494 1493 1493 1493 1493 1493 1493 1493 1493 1493 1493 1494
1510 1513 1515 1500 1484 1481 1486 1500 1491 1488 1488 1488 1487 1493 1493 1491 1490 1489 1490 1491 1491 1491 1490 1490 1490 1490 1490 1490 1489 1489 1490 1490 1491 1490 1490 1490 1490 1490 1490 1490 1490 1490 1490 1491
1509 1511 1504 1490 1483 1481 1500 1502 1491 1489 1487 1487 1487 1489 1489 1489 1489 1488 1488 1489 1489 1488 1488 1487 1487 1488 1487 1487 1486 1486 1487 1487 1488 1488 1487 1487 1487 1487 1488 1488 1488 1488 1488 1488
1508 1512 1508 1487 1485 1491 1494 1490 1489 1488 1487 1487 1487 1487 1488 1487 1487 1487 1487 1487 1487 1486 1485 1485 1485 1485 1485 1484 1484 1484 1484 1485 1484 1484 1485 1485 1485 1485 1485 1485 1485 1484 1485 1484
1501 1501 1491 1487 1487 1487 1488 1488 1488 1488 1488 1487 1487 1488 1488 1487 1487 1487 1487 1486 1486 1485 1484 1484 1484 1484 1483 1483 1483 1483 1483 1483 1482 1482 1483 1483 1483 1483 1483 1483 1482 1482 1482 1481
1495 1493 1490 1488 1487 1487 1487 1487 1487 1488 1488 1487 1487 1488 1488 1488 1487 1487 1486 1485 1485 1484 1484 1483 1483 1483 1482 1482 1482 1482 1481 1481 1481 1481 1481 1481 1481 1481 1481 1480 1480 1479 1479 1479
1494 1491 1490 1489 1488 1487 1487 1487 1487 1487 1487 1487 1487 1487 1487 1487 1487 1487 1486 1485 1484 1483 1483 1482 1482 1481 1481 1481 1480 1480 1480 1479 1479 1479 1480 1479 1479 1479 1478 1478 1478 1477 1477 1476
1493 1488 1489 1489 1488 1487 1486 1486 1486 1486 1487 1487 1487 1487 1487 1487 1487 1486 1485 1484 1483 1482 1482 1481 1481 1480 1480 1479 1479 1478 1478 1478 1478 1478 1478 1478 1477 1477 1477 1477 1476 1476 1475 1475
1485 1485 1486 1486 1486 1486 1485 1485 1485 1485 1485 1486 1486 1486 1486 1486 1486 1485 1484 1483 1482 1482 1482 1481 1480 1480 1479 1479 1478 1478 1477 1477 1477 1477 1477 1476 1476 1475 1474 1474 1474 1474 1474 1474
1483 1484 1485 1485 1485 1485 1484 1484 1484 1484 1485 1485 1485 1485 1485 1485 1484 1484 1484 1483 1482 1482 1481 1480 1480 1479 1479 1479 1478 1477 1477 1476 1476 1476 1475 1475 1474 1474 1473 1472 1472 1471 1472 1472
1483 1483 1483 1483 1484 1484 1483 1483 1483 1483 1484 1484 1484 1484 1484 1484 1483 1483 1483 1482 1482 1481 1481 1480 1479 1478 1478 1478 1477 1476 1476 1475 1475 1475 1474 1473 1473 1472 1472 1471 1471 1470 1470 1470
1482 1482 1482 1482 1482 1482 1482 1482 1482 1482 1483 1483 1483 1484 1483 1483 1482 1482 1482 1481 1481 1480 1480 1479 1478 1478 1477 1477 1476 1475 1475 1474 1474 1473 1473 1472 1472 1471 1470 1470 1469 1469 1469 1469
1480 1480 1481 1481 1481 1481 1480 1480 1480 1480 1480 1481 1481 1482 1481 1481 1481 1480 1480 1480 1480 1479 1478 1478 1477 1477 1477 1476 1475 1474 1474 1473 1473 1472 1472 1471 1471 1470 1469 1469 1468 1468 1468 1468
1478 1478 1478 1478 1478 1478 1479 1479 1479 1478 1478 1478 1479 1479 1479 1479 1478 1478 1478 1478 1478 1477 1477 1477 1477 1476 1475 1474 1474 1473 1472 1472 1471 1471 1471 1470 1470 1469 1468 1467 1467 1466 1467 1467
1475 1475 1475 1476 1476 1476 1476 1476 1476 1477 1477 1477 1477 1477 1477 1477 1477 1477 1477 1476 1476 1475 1475 1475 1475 1474 1473 1473 1472 1471 1471 1470 1470 1469 1469 1468 1468 1467 1466 1466 1465 1465 1465 1465
1472 1473 1473 1473 1473 1473 1474 1474 1474 1474 1474 1475 1475 1475 1475 1475 1475 1475 1475 1474 1474 1473 1474 1473 1473 1472 1471 1471 1470 1469 1468 1468 1467 1467 1466 1466 1465 1465 1464 1464 1464 1464 1464 1464
1470 1470 1471 1471 1471 1471 1471 1472 1472 1471 1472 1472 1472 1472 1473 1473 1473 1473 1473 1472 1472 1472 1472 1471 1470 1470 1469 1468 1467 1466 1466 1465 1464 1464 1463 1463 1462 1462 1462 1463 1463 1463 1463 1463
1468 1469 1469 1470 1469 1469 1469 1469 1469 1469 1469 1470 1470 1470 1471 1471 1471 1471 1470 1470 1470 1470 1469 1469 1468 1467 1467 1466 1465 1464 1463 1463 1462 1461 1461 1460 1460 1460 1460 1460 1461 1461 1461 1462
1467 1467 1468 1468 1467 1467 1467 1467 1467 1467 1467 1467 1468 1468 1469 1469 1469 1468 1468 1468 1467 1467 1467 1466 1466 1465 1464 1463 1462 1461 1461 1460 1460 1459 1459 1459 1458 1458 1458 1459 1459 1460 1460 1460
1466 1466 1466 1466 1466 1465 1465 1465 1465 1465 1465 1466 1466 1466 1467 1467 1467 1466 1466 1466 1465 1465 1464 1464 1463 1463 1462 1461 1460 1459 1459 1458 1458 1458 1457 1457 1457 1457 1457 1457 1458 1458 1458 1458
1464 1464 1464 1464 1464 1463 1463 1463 1463 1463 1463 1463 1464 1464 1465 1465 1465 1465 1464 1464 1463 1463 1462 1462 1461 1460 1460 1459 1458 1458 1457 1457 1456 1455 1455 1455 1456 1456 1456 1456 1456 1456 1456 1455
1462 1462 1462 1462 1462 1462 1461 1461 1461 1461 1461 1461 1462 1463 1463 1463 1463 1463 1463 1462 1461 1460 1460 1459 1459 1458 1458 1457 1456 1456 1455 1455 1454 1454 1454 1454 1454 1454 1454 1454 1454 1454 1454 1453
1461 1461 1460 1460 1460 1460 1460 1460 1459 1460 1460 1460 1461 1462 1462 1462 1461 1461 1461 1460 1459 1458 1458 1457 1457 1456 1456 1455 1454 1454 1453 1453 1452 1452 1453 1453 1453 1453 1453 1452 1452 1452 1451 1450